Dewpoint
26 31 49 50 53 60 63 65 65 65 66 66 65 65 65 66 66 66 66 67 66 67 66 65 64 64 63 62 62 60 59 58 57 56 54 53 53 53 54 54 53 54 55
27 27 28 33 47 56 62 63 65 66 66 66 66 65 65 65 66 66 66 67 66 67 66 65 64 64 63 63 62 60 58 58 57 54 50 42 40 47 50 52 53 53 53
26 27 29 37 48 55 60 62 65 66 66 66 66 64 63 63 63 64 65 66 66 66 66 65 65 64 63 62 62 60 59 57 56 53 46 42 35 43 48 48 49 50 50
28 27 28 38 53 57 60 62 64 65 66 66 65 64 63 62 63 63 64 64 65 65 66 65 65 64 64 63 62 60 60 58 55 54 53 48 42 43 43 47 47 49 49
26 27 29 33 48 56 60 61 64 65 65 65 64 64 63 62 62 63 63 63 64 65 65 65 65 65 64 63 61 58 57 54 52 51 51 51 51 50 49 45 45 47 48
35 40 45 49 48 57 61 63 64 65 64 64 64 63 63 62 61 61 62 62 63 64 64 64 65 64 64 62 60 58 56 54 54 52 51 47 47 47 46 46 46 46 47
42 43 50 54 55 58 61 63 64 64 64 64 64 63 63 63 62 61 62 62 62 63 63 63 63 64 63 60 59 57 54 54 53 51 50 50 50 50 49 49 45 44 46
39 42 45 50 55 58 60 62 63 62 63 64 64 63 63 63 63 62 62 62 62 63 63 64 63 62 60 58 58 57 56 54 53 52 51 51 51 51 51 45 40 43 43
36 39 43 47 50 54 58 60 62 62 63 63 63 63 64 63 63 63 62 63 63 63 63 63 63 61 58 58 57 55 54 54 52 51 51 51 50 51 48 47 50 47 42
35 36 38 43 48 54 56 58 59 60 62 63 64 64 64 64 64 64 63 63 63 63 62 61 60 57 57 56 56 54 53 52 50 50 49 49 49 46 49 51 50 49 46
35 35 35 39 44 48 55 57 58 58 59 62 63 64 64 64 64 64 64 63 63 61 61 59 58 56 56 56 54 52 51 49 49 49 48 45 47 48 49 49 49 48 46
35 36 36 36 41 46 49 54 57 57 57 59 62 63 63 63 63 63 63 62 61 60 60 58 57 56 55 54 52 50 49 48 47 44 42 43 44 46 46 45 44 45 45
33 34 36 37 38 43 49 52 54 55 57 57 58 60 61 61 62 62 62 60 59 58 58 57 56 55 54 52 50 48 46 41 41 41 42 43 45 43 43 43 42 43 44
34 34 36 37 40 42 48 51 53 55 56 58 58 57 58 59 59 60 60 59 58 56 55 55 55 54 51 49 45 41 40 41 42 43 44 43 43 42 42 42 43 42 42
35 35 36 38 39 41 44 49 52 53 56 58 59 58 59 59 60 60 59 58 57 55 53 53 52 50 47 43 41 42 42 43 44 44 43 43 43 43 43 43 43 43 42
38 39 39 38 38 39 40 42 46 49 55 58 58 59 59 60 60 59 57 56 54 53 52 50 47 44 41 40 41 43 43 42 42 41 42 42 42 41 42 42 43 43 43
40 42 43 43 42 43 43 42 43 46 53 57 58 59 59 59 59 56 54 53 52 50 49 46 43 41 41 41 41 42 42 41 41 41 41 41 41 41 41 42 42 42 42
36 36 39 41 43 43 44 44 46 47 49 52 56 57 57 57 56 54 53 51 49 47 45 43 42 42 41 41 42 43 42 41 40 40 40 39 39 39 39 39 40 41 41
37 36 37 40 42 42 42 42 42 45 45 46 48 51 53 53 52 52 51 49 46 45 43 42 42 43 42 42 42 41 41 40 39 39 39 39 39 39 39 39 38 38 38
40 38 38 40 40 41 41 39 40 40 40 44 46 47 49 50 49 48 47 45 45 43 42 43 43 42 42 42 41 41 40 39 38 37 37 37 37 38 39 38 37 36 37
43 43 38 38 39 41 42 40 40 39 41 44 44 44 45 46 46 44 43 42 42 43 43 42 42 42 42 40 40 40 40 38 36 35 35 35 35 36 36 37 37 36 37
44 45 45 41 39 40 40 39 38 40 40 41 41 41 41 42 42 42 42 43 43 42 41 41 39 40 40 40 40 40 39 37 35 35 35 35 35 35 35 36 36 36 36
44 44 45 44 40 40 39 38 38 40 40 40 39 40 40 40 41 41 41 41 40 39 38 38 39 39 38 39 39 38 37 36 34 34 34 34 34 34 34 36 36 35 34
42 43 42 41 41 42 40 40 41 41 41 39 39 39 39 39 40 40 40 39 39 38 38 38 38 38 38 37 37 36 36 34 33 33 33 33 33 34 34 34 34 33 34
39 40 40 39 40 38 37 37 38 40 40 39 39 39 38 38 38 37 37 38 38 39 38 38 38 37 36 36 36 35 33 32 32 32 32 32 32 32 32 32 32 32 32
37 37 37 36 35 36 36 36 36 37 39 39 39 39 39 38 38 37 36 38 38 39 39 39 38 37 37 36 36 35 33 32 32 31 30 31 31 31 31 31 30 31 31
Wind_Speed
23 27 29 27 27 28 27 29 28 28 25 24 25 24 29 22 20 19 18 19 18 18 19 18 16 16 17 19 18 11 13 13 9 5 5 7 11 12 12 9 9 10 7
25 21 24 27 31 34 35 31 32 29 30 27 25 17 19 16 15 14 15 19 20 20 20 20 19 19 17 16 15 16 11 12 14 6 2 6 5 4 6 5 10 11 8
28 25 15 24 27 32 34 35 35 34 31 27 18 6 8 5 12 17 20 21 20 21 22 21 20 19 19 19 17 20 21 15 14 10 7 4 7 3 4 6 8 8 6
22 23 14 19 27 32 29 29 29 27 25 24 21 25 24 21 22 20 15 15 18 20 20 20 18 17 16 19 18 18 15 12 14 5 5 5 5 4 4 4 7 6 7
14 15 14 20 23 17 21 19 18 17 18 20 20 20 19 15 8 14 17 19 15 18 19 18 19 19 16 16 14 12 13 2 8 8 4 8 4 5 9 5 7 5 8
3 3 6 9 10 9 13 15 17 15 16 18 19 23 23 18 16 15 18 17 16 14 17 20 20 20 17 16 17 14 16 9 6 6 13 7 5 8 7 7 12 12 11
8 8 11 11 12 15 18 20 22 23 24 26 25 24 22 18 20 19 19 16 16 18 21 20 21 19 15 15 16 20 21 22 15 19 18 10 13 6 3 4 11 10 6
7 4 3 8 12 16 20 20 21 20 19 20 21 21 21 20 20 20 18 18 18 19 19 18 17 15 15 18 19 17 11 6 16 19 14 13 11 5 4 6 11 15 10
6 8 7 10 13 16 20 24 23 21 22 24 21 21 20 22 22 19 17 19 19 18 19 18 15 12 15 14 14 14 13 16 16 16 13 9 7 7 9 12 13 9 21
11 12 14 16 15 19 18 18 20 24 24 23 23 22 23 24 23 18 21 21 21 19 17 17 16 17 18 20 20 20 17 19 16 12 10 8 5 10 12 14 9 9 13
13 13 17 21 24 19 18 24 24 25 25 23 23 22 23 22 20 21 21 21 18 16 17 16 16 17 17 15 15 11 20 19 15 11 9 10 10 12 11 8 5 10 12
18 18 22 22 22 26 24 24 25 26 27 26 22 24 19 19 20 21 20 17 18 15 17 15 15 16 18 20 20 22 18 17 15 13 11 14 11 12 7 1 6 10 11
25 25 22 22 23 25 26 26 25 27 25 21 23 21 23 21 22 21 19 19 18 18 17 17 20 23 22 20 19 20 20 18 15 15 14 13 13 8 1 6 9 11 10
25 27 25 25 23 24 23 21 21 22 21 18 20 22 22 22 22 20 18 18 19 19 19 20 19 18 19 20 19 20 17 14 14 11 12 12 8 4 4 7 10 10 11
23 24 25 25 24 21 23 24 26 25 18 19 20 24 21 19 19 19 18 18 19 19 19 18 17 19 22 20 19 16 14 13 12 10 8 7 5 3 6 7 11 10 10
20 21 22 23 22 21 21 21 24 29 20 20 24 21 18 19 21 21 20 19 19 20 20 21 23 24 21 28 25 18 16 13 11 10 8 7 7 4 5 9 12 11 9
16 17 18 18 17 18 17 18 19 17 19 22 23 21 21 21 21 17 17 21 22 20 22 22 22 22 18 24 19 16 10 9 8 7 7 7 3 2 5 7 8 10 13
16 18 19 17 17 17 21 17 17 11 8 10 9 7 8 11 9 12 16 15 16 22 22 20 19 20 19 21 16 13 11 8 9 8 6 3 5 5 6 5 8 10 9
11 13 15 15 17 21 17 19 21 19 17 16 14 12 8 11 12 16 16 13 15 16 17 18 20 21 20 19 16 15 11 8 5 4 2 2 5 7 4 6 9 13 12
12 16 17 16 20 20 19 21 19 19 20 18 13 6 3 7 9 8 7 5 9 13 13 14 15 19 21 19 18 13 8 5 3 1 4 5 8 8 8 9 10 13 14
14 17 16 14 14 15 16 16 14 15 15 14 11 8 4 2 6 8 9 11 9 9 9 12 12 16 16 12 13 12 8 7 6 5 7 6 7 8 10 8 11 14 7
16 12 13 13 14 13 11 10 11 10 9 9 10 10 10 7 4 10 12 15 19 18 17 19 14 12 10 10 10 11 10 9 8 7 6 8 10 11 11 9 12 13 10
14 13 11 12 12 11 10 11 13 10 9 7 7 7 5 4 1 5 8 11 13 16 17 16 13 9 6 7 12 13 11 8 5 5 6 8 11 11 12 13 12 10 11
13 12 15 19 21 20 16 15 17 16 13 8 5 4 4 6 7 8 10 14 15 14 11 7 6 2 6 9 11 11 9 6 4 3 5 6 9 9 9 8 8 11 12
13 13 13 12 13 14 16 18 18 14 13 10 9 11 13 13 15 17 15 13 10 10 7 3 6 8 8 11 14 13 10 7 3 1 3 5 5 7 6 5 7 8 10
11 13 15 14 15 16 18 20 21 19 16 14 12 10 9 11 12 15 13 14 12 8 4 4 5 6 8 6 12 12 10 7 4 3 5 6 7 9 7 6 6 7 10
Wind_Direction
251 227 219 213 207 202 197 200 197 198 188 195 200 206 213 213 213 211 205 203 208 208 211 220 221 216 215 215 208 192 204 213 190 175 250 267 260 257 255 260 266 270 270
274 253 213 207 201 199 198 198 201 194 195 198 203 210 209 217 218 215 212 207 206 209 212 215 218 218 215 216 208 201 206 212 184 174 89 305 319 303 268 266 265 275 297
264 262 207 204 199 198 198 200 199 197 196 197 192 171 167 168 197 206 211 213 211 215 216 216 217 214 209 216 210 206 205 203 200 188 157 153 249 311 320 282 270 263 280
267 255 229 195 194 201 199 203 199 195 193 185 189 198 204 208 221 223 221 212 209 216 213 212 213 217 216 220 209 208 210 202 199 165 242 162 170 210 273 298 293 286 263
286 257 230 213 205 194 193 196 190 182 182 184 191 196 206 214 210 208 218 221 213 215 216 211 210 217 219 219 202 192 177 41 136 125 240 234 232 227 226 245 259 283 260
346 87 128 158 186 161 163 159 159 169 172 181 191 199 210 213 212 212 216 220 225 224 224 217 219 223 222 202 191 168 128 156 201 215 236 180 206 226 209 229 261 253 251
2 118 123 126 150 166 169 172 179 192 190 195 201 206 214 211 217 219 217 213 220 224 230 226 229 231 216 186 171 170 170 182 184 209 212 203 228 211 206 263 278 267 255
336 337 158 155 154 168 181 185 193 201 196 199 206 209 210 214 220 221 217 218 223 227 233 229 230 224 187 177 177 174 170 231 184 204 188 198 214 194 203 255 290 298 288
278 275 256 228 196 190 191 195 198 203 198 204 207 210 214 216 221 222 215 224 226 228 226 218 215 186 174 170 157 154 174 171 202 193 186 190 197 194 238 258 243 269 295
268 268 261 256 233 220 210 202 199 203 205 205 205 209 215 218 223 219 220 221 226 223 217 208 189 172 165 164 165 174 172 188 182 180 168 188 195 244 248 246 234 239 270
284 268 255 249 246 241 216 213 210 212 216 210 209 211 215 214 214 218 222 223 224 218 217 207 184 177 175 166 169 183 175 179 171 160 175 217 228 243 244 228 243 245 254
300 297 289 287 268 244 238 222 214 212 219 214 208 212 212 211 212 218 220 212 218 208 212 192 181 178 177 179 185 175 178 176 172 174 197 224 237 222 212 234 264 267 260
312 307 300 287 275 261 244 232 230 224 221 209 207 208 211 209 217 225 222 213 210 210 200 190 189 186 187 179 178 173 174 175 178 193 210 220 203 209 292 276 274 267 266
298 295 291 285 269 255 244 249 248 242 240 224 215 215 217 216 219 223 215 209 201 199 197 194 194 186 176 173 170 167 169 176 188 200 208 205 203 85 272 269 264 259 258
303 296 292 286 281 267 249 242 244 250 242 232 222 224 222 217 220 222 217 209 201 200 195 189 183 177 171 165 164 164 170 175 184 201 209 214 137 145 234 248 256 253 261
312 322 319 304 292 282 262 250 248 246 235 228 228 224 216 216 219 220 214 207 202 194 187 185 179 174 167 167 167 164 173 179 186 202 202 189 144 205 255 251 242 248 256
336 349 344 343 343 340 333 308 287 268 231 228 232 222 216 217 219 214 206 209 202 184 184 181 173 168 161 160 160 156 155 165 191 207 203 212 169 202 247 267 273 269 254
355 357 352 5 18 17 21 21 27 5 297 278 282 279 263 252 240 219 220 209 193 190 183 176 163 155 159 154 145 148 161 175 193 205 203 201 227 237 244 285 302 263 243
355 348 347 350 6 19 23 34 24 20 21 5 349 324 275 250 241 234 223 204 187 186 183 172 156 151 153 147 151 160 172 182 193 205 203 253 273 275 286 256 258 261 253
10 8 11 13 18 10 15 19 15 9 360 350 344 348 283 242 242 241 220 205 190 179 162 159 147 139 145 159 170 164 163 174 201 243 302 276 257 267 254 234 239 250 251
347 355 4 13 3 356 2 6 2 357 339 334 336 335 328 250 204 186 171 159 155 140 133 109 110 129 148 166 162 167 164 199 207 228 266 273 272 266 272 253 248 244 232
340 348 342 345 341 348 359 353 346 331 332 339 334 332 328 306 220 193 171 156 152 146 141 140 135 134 143 156 185 182 193 182 199 238 254 260 264 276 273 267 255 246 200
318 335 339 340 335 328 330 322 317 310 310 325 344 344 351 359 51 151 140 130 137 138 138 140 141 151 174 199 198 191 189 179 205 209 225 263 274 268 268 267 259 218 186
328 334 342 344 336 343 8 5 355 348 337 331 8 38 62 71 71 98 120 129 127 130 133 131 147 239 289 238 196 187 174 177 189 225 263 269 265 252 255 262 234 195 184
347 352 2 359 16 30 25 15 7 8 10 11 27 49 56 59 70 63 57 64 52 81 68 10 322 296 278 244 204 185 185 194 195 214 268 257 262 255 250 233 212 177 173
20 34 41 41 33 34 34 28 26 28 34 30 19 28 53 63 53 44 29 31 33 22 7 276 256 263 252 248 206 192 176 159 179 191 242 256 255 256 250 228 203 186 187